Regional Weather Roundup
Issued by NWS

Home | Current Version | Previous Version | Text Only | Print | Product List | Glossary Off
Versions: 1 2 3 4 5 6 7 8 9 10 11 12 13 14 15 16 17 18 19 20 21 22 23 24 25 26 27 28 29 30 31 32 33 34 35 36 37 38 39 40 41 42 43 44 45 46 47 48 49 50

000
ASUS43 KFSD 191210
RWRSD

WEATHER ROUNDUP FOR SOUTH DAKOTA
NATIONAL WEATHER SERVICE SIOUX FALLS SD
600 AM CST FRI DEC 19 2014

NOTE: "FAIR" INDICATES FEW OR NO CLOUDS BELOW 12,000 FEET WITH NO
SIGNIFICANT WEATHER AND/OR OBSTRUCTIONS TO VISIBILITY.


SDZ001>005-009-010-012>017-191300-
NORTHWEST AND NORTH CENTRAL SOUTH DAKOTA

CITY           SKY/WX    TMP DP  RH WIND       PRES   REMARKS
BUFFALO          N/A     28  19  69 W8        29.87S WCI  20
FAITH            N/A     28  23  81 SW10      29.95F WCI  19
MOBRIDGE       MOCLDY    22  19  89 SE8       29.97R WCI  12
$$

SDZ012>016-024>037-041>051-057-063-072>074-191300-
SOUTHWEST AND SOUTH CENTRAL SOUTH DAKOTA

CITY           SKY/WX    TMP DP  RH WIND       PRES   REMARKS
RAPID CTY ARPT PTCLDY    28  18  66 NW8       29.97S WCI  20
PIERRE         FOG       15  11  83 CALM      30.02S VSB 3/4
CUSTER         CLEAR     22  13  68 NW6       29.95S WCI  14
ELLSWORTH AFB  PTCLDY    24  17  73 W6        29.96S WCI  17
PHILIP         PTCLDY    18  14  84 W6        30.00F WCI  10
PINE RIDGE     CLEAR     22  15  75 SW6       30.01F WCI  14
SPEARFISH      FAIR      27  16  63 W5        29.97S WCI  21
WINNER         FAIR      22  16  78 S7        30.03S WCI  13
$$

SDZ004>011-016>023-039-040-191300-
NORTHEAST SOUTH DAKOTA

CITY           SKY/WX    TMP DP  RH WIND       PRES   REMARKS
ABERDEEN       CLOUDY    28  25  88 S12       30.07F WCI  18
WATERTOWN      CLOUDY    26  24  92 S14       30.07S WCI  14
SISSETON         N/A     25  25 100 S10       30.10S WCI  15
$$

SDZ017-020-022-023-036>040-048>070-191300-
SOUTHEAST SOUTH DAKOTA

CITY           SKY/WX    TMP DP  RH WIND       PRES   REMARKS
SIOUX FALLS    CLOUDY    28  25  88 S9        30.15R WCI  19
HURON          CLOUDY    28  25  88 S14       30.09R WCI  17
CHAMBERLAIN    FOG       14  12  92 SE3       30.05S VSB 3/4
MITCHELL       CLOUDY    29  27  92 S12       30.11S FOG     WCI  19
YANKTON        CLOUDY    28  25  86 S9        30.16S WCI  20
$$

ABBREVIATIONS USED IN REMARKS
   TC - TEMPERATURE IN CELSIUS
  WCI - WIND CHILL INDEX
   HX - HEAT INDEX
  VSB - VISIBILITY



USA.gov is the U.S. government's official web portal to all federal, state and local government web resources and services.